Regional Weather Roundup
Issued by NWS Green Bay, WI

Home | Current Version | Previous Version | Text Only | Print | Product List | Glossary On
Versions: 1 2 3 4 5 6 7 8 9 10 11 12 13 14 15 16 17 18 19 20 21 22 23 24 25 26 27 28 29 30 31 32 33 34 35 36 37 38 39 40 41 42 43 44 45 46 47 48 49 50
000
ASUS43 KGRB 271000
RWRGRB

NORTH-CENTRAL AND NORTHEAST WISCONSIN REGIONAL WEATHER ROUNDUP
NATIONAL WEATHER SERVICE GREEN BAY WI
500 AM CDT FRI MAY 27 2016

WIZ005-009-010>012-018-019-271100-
NORTH CENTRAL WISCONSIN

CITY           SKY/WX    TMP DP  RH WIND       PRES   REMARKS
IRONWOOD       PTCLDY    50  48  93 E5        29.85
MANITOWISH WTR NOT AVBL
ARBOR VITAE    NOT AVBL
EAGLE RIVER    NOT AVBL
LAND O LAKES   NOT AVBL
RHINELANDER    FOG       51  50  96 CALM      29.90S VSB 1/4
PHILLIPS       NOT AVBL
ANTIGO         NOT AVBL
TOMAHAWK       NOT AVBL
MERRILL        NOT AVBL
$$

WIZ013-073-271100-
NORTHEAST WISCONSIN

CITY           SKY/WX    TMP DP  RH WIND       PRES   REMARKS
IRON MOUNTAIN  FOG       57  56  96 CALM      29.88R VSB 1/4
MARINETTE      PTCLDY    54  54 100 NE3       29.88F
$$

WIZ017-030-035>037-045-271100-
CENTRAL WISCONSIN

CITY           SKY/WX    TMP DP  RH WIND       PRES   REMARKS
MEDFORD        NOT AVBL
WAUSAU         CLOUDY    57  55  93 CALM      29.88R FOG
MOSINEE        NOT AVBL
MARSHFIELD     CLOUDY    58  55  90 NE5       29.87S
WISC RAPIDS    CLOUDY    57  55  93 NE3       29.88F
STEVENS POINT  NOT AVBL
WAUPACA        NOT AVBL
SHAWANO        NOT AVBL
CLINTONVILLE   NOT AVBL
WAUTOMA        CLOUDY    56  56 100 CALM      29.89R
$$

WIZ038-039-048-051-271100-
FOX VALLEY

CITY           SKY/WX    TMP DP  RH WIND       PRES   REMARKS
NWS GREEN BAY  CLEAR     58  56  93 CALM      29.88S FOG
APPLETON       NOT AVBL
OSHKOSH        PTCLDY    59  56  89 CALM      29.87F
FOND DU LAC    CLOUDY    58  56  93 CALM      29.88S
$$

WIZ022-050-052-271100-
EAST CENTRAL WISCONSIN

CITY           SKY/WX    TMP DP  RH WIND       PRES   REMARKS
EPHRAIM        NOT AVBL
STURGEON BAY   NOT AVBL
MANITOWOC      NOT AVBL
SHEBOYGAN      CLEAR     57  55  93 CALM      29.88S
$$

LMZ563-521-522-541>543-271100-
LAKESHORE

STATION/POSITION TIME  TEMP    WIND        PRES    VSBY  WAVE
                       AIR SEA DIR/SP/G                  HT/PER
                 (UTC) (F)     (DEG/KT/KT) (MB)    (MI)  (FT/S)
SHEBOYGAN LKSHOR 0900   61      CALM  /  1 1011.9F
KEWAUNEE LKSHORE 0900           40/  1/  2 1011.4R
ALGOMA MARINA    0917             CALM       N/A
NORTHPORT PIER   0900   51     140/  3/  4 1012.2R
N MID LAKE BUOY  0850   47 45  160/  6/  8 1012.4R         1/ 5
SISTER BAY LKSHO 0919   56        CALM       N/A
CHAMBERS ISLAND  0900   55      CALM  /  2 1012.2R
MENOMINEE LKSHOR 0900   58     360/  3/  4 1011.0R
$$




USA.gov is the U.S. government's official web portal to all federal, state and local government web resources and services.